Location: NCO
(38.4404°N, 77.1340°W)
Time: 20:02:33
(UTC-05:00)

Tiangong 2 - Visible Passes

Search period start: 20 November 2017 00:00
Search period end: 30 November 2017 00:00
Orbit: 386 x 391 km, 42.8° (Epoch: 20 November)

Date Brightness Start Highest point End Pass type
(mag) Time Alt. Az. Time Alt. Az. Time Alt. Az.
25 Nov 4.2 05:42:45 10° S 05:44:29 14° SE 05:46:14 10° ESE visible
26 Nov 2.2 06:19:42 10° SW 06:22:48 46° SSE 06:25:53 10° ENE visible
27 Nov 3.1 05:22:53 16° SSW 05:24:41 26° SSE 05:27:25 10° E visible
28 Nov 4.6 04:28:09 11° ESE 04:28:09 11° ESE 04:28:33 10° ESE visible
28 Nov 1.1 06:00:30 14° WSW 06:03:07 85° SSE 06:06:19 10° ENE visible
29 Nov 2.3 05:05:32 41° ESE 05:05:32 41° ESE 05:08:01 10° ENE visible
